EW7824 Weather Reports


time (UTC)temp
C
wind
direction
speed
KPH
gust
KPH
rain 1hr
cm
rain 24hr
cm
rain mn
cm
humidity
%
barometer
mb
20260510143903 11 34 3.2 9.7 0.08 0.28 0.20 79 1020.2
20260510143403 11 70 4.8 9.7 0.10 0.28 0.20 79 1019.9
20260510141903 11 46 8.0 11.3 0.10 0.25 0.18 79 1020.5
20260510141403 11 64 3.2 11.3 0.10 0.25 0.18 79 1020.5
20260510140903 11 68 8.0 14.5 0.10 0.25 0.18 80 1020.5
20260510140402 11 54 8.0 24.1 0.10 0.23 0.15 80 1020.5
20260510134903 12 55 11.3 20.9 0.15 0.23 0.15 81 1020.0
20260510134402 12 56 3.2 9.7 0.13 0.20 0.13 81 1020.0
20260510133404 12 53 4.8 12.9 0.10 0.18 0.10 79 1020.1
20260510131402 13 64 3.2 9.7 0.08 0.15 0.08 76 1020.2
20260510130903 13 41 4.8 14.5 0.08 0.15 0.08 75 1020.2
20260510130403 13 10 8.0 12.9 0.05 0.13 0.05 73 1020.4
20260510124905 14 67 4.8 11.3 0.00 0.08 0.00 65 1019.5
20260510124403 14 69 4.8 9.7 0.00 0.08 0.00 65 1019.5
20260510123405 14 30 4.8 14.5 0.00 0.08 0.00 63 1019.1
20260510121903 15 78 3.2 14.5 0.00 0.08 0.00 56 1018.1
20260510121403 15 28 11.3 20.9 0.00 0.08 0.00 57 1017.9
20260510120903 14 46 8.0 16.1 0.00 0.08 0.00 58 1017.6
20260510120403 14 58 4.8 22.5 0.00 0.08 0.00 58 1017.3
20260510114903 14 63 11.3 16.1 0.00 0.08 0.00 58 1016.3
20260510114403 14 73 9.7 25.7 0.00 0.08 0.00 59 1016.2
20260510113903 14 42 16.1 25.7 0.00 0.08 0.00 60 1015.9
20260510113403 14 41 19.3 29.0 0.00 0.08 0.00 61 1015.8
20260510111904 15 45 20.9 29.0 0.00 0.08 0.00 61 1015.3
20260510111403 15 38 19.3 27.4 0.00 0.08 0.00 61 1015.3
20260510110902 15 47 19.3 27.4 0.00 0.08 0.00 60 1015.2
20260510104903 15 39 20.9 27.4 0.00 0.08 0.00 60 1015.0
20260510104403 15 39 11.3 20.9 0.00 0.08 0.00 59 1015.2
20260510103903 15 34 14.5 20.9 0.00 0.08 0.00 58 1015.1
20260510101904 16 40 16.1 27.4 0.00 0.08 0.00 57 1014.7
20260510101404 16 46 19.3 35.4 0.00 0.08 0.00 57 1014.5
20260510100903 16 69 11.3 24.1 0.00 0.08 0.00 57 1014.5
20260510100404 16 37 11.3 24.1 0.00 0.08 0.00 57 1014.5
20260510094904 16 53 17.7 25.7 0.00 0.08 0.00 57 1014.2
20260510094403 16 31 11.3 22.5 0.00 0.08 0.00 57 1014.2
20260510093903 16 57 14.5 22.5 0.00 0.08 0.00 57 1014.0
20260510093403 16 45 16.1 33.8 0.00 0.08 0.00 57 1014.0
20260510091903 16 46 11.3 29.0 0.00 0.08 0.00 57 1013.5
20260510091403 16 57 16.1 29.0 0.00 0.08 0.00 56 1013.7
20260510090903 16 54 14.5 27.4 0.00 0.08 0.00 57 1013.7
20260510090404 16 45 16.1 29.0 0.00 0.08 0.00 57 1013.7
20260510084904 16 61 14.5 25.7 0.00 0.08 0.00 58 1013.6
20260510084403 16 46 12.9 16.1 0.00 0.08 0.00 58 1013.6
20260510083903 16 52 11.3 20.9 0.00 0.08 0.00 59 1013.5
20260510083403 16 53 14.5 22.5 0.00 0.08 0.00 59 1013.5
20260510081904 16 65 14.5 22.5 0.00 0.08 0.00 59 1013.3
20260510081403 16 56 9.7 22.5 0.00 0.08 0.00 60 1013.3
20260510080403 16 49 17.7 25.7 0.00 0.08 0.00 60 1013.3
20260510074903 16 45 9.7 12.9 0.00 0.08 0.00 61 1013.1
20260510074403 16 46 6.4 9.7 0.00 0.08 0.00 61 1012.9
20260510073904 16 60 8.0 16.1 0.00 0.08 0.00 60 1012.8
20260510073403 17 56 4.8 16.1 0.00 0.08 0.00 59 1012.8
20260510071904 17 37 9.7 16.1 0.00 0.08 0.00 59 1013.0
20260510071403 17 44 6.4 14.5 0.00 0.08 0.00 58 1012.8
20260510070903 17 70 8.0 16.1 0.00 0.08 0.00 58 1012.6
20260510064904 17 63 8.0 14.5 0.00 0.08 0.00 57 1012.4
20260510064404 17 37 9.7 14.5 0.00 0.08 0.00 56 1012.4
20260510063903 18 68 8.0 16.1 0.00 0.08 0.00 56 1012.3
20260510063404 18 71 8.0 14.5 0.00 0.08 0.00 55 1012.2
20260510061403 18 66 6.4 9.7 0.00 0.08 0.00 56 1012.1
20260510060903 18 59 8.0 14.5 0.00 0.08 0.00 57 1012.0
20260510054903 18 59 6.4 16.1 0.00 0.08 0.00 56 1011.6
20260510053903 18 64 4.8 11.3 0.00 0.08 0.00 56 1011.2
20260510051904 18 45 9.7 22.5 0.00 0.08 0.00 58 1011.2
20260510051403 18 44 12.9 22.5 0.00 0.08 0.00 59 1011.2
20260510050903 18 48 11.3 16.1 0.00 0.08 0.00 59 1011.1
20260510050404 18 46 9.7 14.5 0.00 0.08 0.00 61 1011.1
20260510044403 18 35 8.0 11.3 0.00 0.08 0.08 64 1011.0
20260510043903 18 19 8.0 11.3 0.00 0.08 0.08 63 1010.8
20260510043404 18 34 1.6 3.2 0.00 0.08 0.08 62 1010.8
20260510041905 18 33 0.0 0.0 0.00 0.08 0.08 59 1010.9
20260510041404 18 33 0.0 3.2 0.00 0.08 0.08 60 1010.9
20260510040404 18 67 0.0 9.7 0.00 0.08 0.08 59 1010.9
20260510033904 19 99 0.0 0.0 0.00 0.08 0.08 55 1010.8
20260510033404 20 99 0.0 0.0 0.00 0.08 0.08 54 1010.7
20260510031904 20 99 0.0 0.0 0.00 0.08 0.08 50 1010.3
20260510031404 20 99 0.0 0.0 0.00 0.08 0.08 50 1010.1
20260510030903 20 99 0.0 1.6 0.00 0.08 0.08 47 1010.0
20260510030404 20 148 3.2 11.3 0.00 0.08 0.08 47 1010.0
20260510023903 20 161 3.2 9.7 0.08 0.08 0.08 54 1010.1
20260510023404 20 162 4.8 11.3 0.08 0.08 0.08 55 1009.9
20260510021904 20 123 0.0 3.2 0.08 0.08 0.08 56 1009.6
20260510020904 20 192 1.6 3.2 0.08 0.08 0.08 55 1009.9
20260510020404 21 318 0.0 22.5 0.08 0.08 0.08 52 1010.0
20260510014905 23 18 14.5 25.7 0.05 0.05 0.05 49 1010.3
20260510014404 23 331 4.8 16.1 0.03 0.03 0.03 42 1010.8
20260510013903 24 248 19.3 24.1 0.00 0.00 0.00 36 1010.7
20260510013405 25 247 12.9 27.4 0.00 0.00 0.00 32 1010.3
20260510011403 26 327 4.8 9.7 0.00 0.00 0.00 31 1009.4
20260510010904 26 307 1.6 8.0 0.00 0.00 0.00 25 1009.0
20260510010405 26 175 4.8 12.9 0.00 0.00 0.00 23 1008.6
20260510004904 26 107 1.6 8.0 0.00 0.00 0.00 21 1007.6
20260510004404 26 105 3.2 8.0 0.00 0.00 0.00 20 1007.3
20260510003903 27 133 1.6 8.0 0.00 0.00 0.00 20 1006.9
20260510003405 27 115 3.2 9.7 0.00 0.00 0.00 20 1006.8
20260510001904 27 140 1.6 3.2 0.00 0.00 0.00 19 1006.4
20260510000903 27 122 1.6 3.2 0.00 0.00 0.00 18 1006.4
20260509234904 28 120 4.8 9.7 0.00 0.00 0.00 18 1006.3
20260509234403 28 157 4.8 12.9 0.00 0.00 0.00 18 1006.3
20260509233903 28 116 4.8 12.9 0.00 0.00 0.00 17 1006.4
20260509233404 29 147 6.4 12.9 0.00 0.00 0.00 17 1006.5
20260509231904 30 154 4.8 11.3 0.00 0.00 0.00 16 1006.7
20260509231405 30 143 3.2 12.9 0.00 0.00 0.00 16 1006.7
20260509230903 30 165 9.7 22.5 0.00 0.00 0.00 16 1006.8
20260509230406 31 132 1.6 14.5 0.00 0.00 0.00 16 1006.9
20260509223902 31 142 1.6 8.0 0.00 0.00 0.00 17 1006.8
20260509223402 31 162 8.0 16.1 0.00 0.00 0.00 15 1006.7
20260509221401 31 261 4.8 9.7 0.00 0.00 0.00 15 1006.6
20260509220902 31 150 8.0 14.5 0.00 0.00 0.00 14 1006.7
20260509214902 31 138 4.8 16.1 0.00 0.00 0.00 15 1006.6
20260509214403 31 267 8.0 12.9 0.00 0.00 0.00 14 1006.6
20260509213901 31 264 8.0 12.9 0.00 0.00 0.00 15 1006.7
20260509211401 30 167 4.8 14.5 0.00 0.00 0.00 16 1007.0
20260509210902 30 237 9.7 20.9 0.00 0.00 0.00 15 1007.1
20260509210402 31 192 9.7 20.9 0.00 0.00 0.00 17 1007.2
20260509204902 31 137 14.5 20.9 0.00 0.00 0.00 15 1007.3
20260509204403 31 221 11.3 22.5 0.00 0.00 0.00 16 1007.3
20260509203902 31 73 3.2 8.0 0.00 0.00 0.00 16 1007.3
20260509203403 31 275 8.0 11.3 0.00 0.00 0.00 15 1007.4
20260509201903 31 89 4.8 11.3 0.00 0.00 0.00 16 1007.6
20260509201401 31 206 6.4 20.9 0.00 0.00 0.00 15 1007.6
20260509200902 31 249 8.0 16.1 0.00 0.00 0.00 16 1007.7
20260509200403 31 151 9.7 16.1 0.00 0.00 0.00 16 1007.8
20260509194902 31 286 9.7 20.9 0.00 0.00 0.00 18 1008.0
20260509193902 31 146 4.8 11.3 0.00 0.00 0.00 20 1008.2
20260509193403 31 201 8.0 16.1 0.00 0.00 0.00 18 1008.3
20260509191402 30 265 8.0 14.5 0.00 0.00 0.00 18 1008.4
20260509190902 30 197 11.3 16.1 0.00 0.00 0.00 16 1008.4
20260509184902 30 239 9.7 22.5 0.00 0.00 0.00 19 1008.7
20260509184401 30 249 9.7 25.7 0.00 0.00 0.00 19 1008.8
20260509183901 31 227 4.8 12.9 0.00 0.00 0.00 15 1008.8
20260509183403 31 321 6.4 20.9 0.00 0.00 0.00 19 1008.9
20260509181902 30 214 14.5 22.5 0.00 0.00 0.00 17 1009.1
20260509181402 29 171 8.0 22.5 0.00 0.00 0.00 19 1009.3
20260509180903 29 189 12.9 22.5 0.00 0.00 0.00 20 1009.3
20260509174902 28 112 6.4 20.9 0.00 0.00 0.00 21 1009.5
20260509173902 28 199 9.7 16.1 0.00 0.00 0.00 20 1009.7
20260509173402 28 234 12.9 22.5 0.00 0.00 0.00 21 1009.8
20260509171903 27 204 11.3 20.9 0.00 0.00 0.00 22 1010.1
20260509171401 26 207 11.3 16.1 0.00 0.00 0.00 23 1010.2
20260509170403 27 251 14.5 24.1 0.00 0.00 0.00 23 1010.2
20260509164902 28 266 14.5 25.7 0.00 0.00 0.00 25 1010.4
20260509164402 27 230 17.7 27.4 0.00 0.00 0.00 25 1010.4
20260509163903 27 182 12.9 27.4 0.00 0.00 0.00 25 1010.4
20260509163402 27 221 16.1 25.7 0.00 0.00 0.00 24 1010.3
20260509161402 26 245 14.5 24.1 0.00 0.00 0.00 27 1010.4
20260509160901 26 254 16.1 25.7 0.00 0.00 0.00 29 1010.4
20260509160402 26 238 14.5 20.9 0.00 0.00 0.00 33 1010.5
20260509154902 25 233 11.3 22.5 0.00 0.00 0.00 34 1010.4
20260509154402 25 224 14.5 14.5 0.00 0.00 0.00 33 1010.5
20260509153902 24 224 14.5 22.5 0.00 0.00 0.00 34 1010.5
20260509153402 24 244 12.9 24.1 0.00 0.00 0.00 35 1010.4
20260509151902 25 209 14.5 24.1 0.00 0.00 0.00 34 1010.6
20260509151403 24 264 14.5 20.9 0.00 0.00 0.00 35 1010.6
20260509150902 23 261 9.7 16.1 0.00 0.00 0.00 37 1010.6
20260509150402 23 257 12.9 20.9 0.00 0.00 0.00 37 1010.5
20260509144902 23 216 6.4 11.3 0.00 0.00 0.00 41 1010.3
20260509144402 22 243 8.0 11.3 0.00 0.00 0.00 42 1010.3